www.pogodaiklimat.ru
ПОГОДА в Дригсе
Время
и дата
04:56 27.03
05:56 27.03
06:56 27.03
07:11 27.03
07:23 27.03
07:40 27.03
07:45 27.03
07:56 27.03
08:04 27.03
08:17 27.03
08:35 27.03
08:54 27.03
08:56 27.03
09:02 27.03
09:34 27.03
09:38 27.03
09:56 27.03
10:56 27.03
11:56 27.03
12:56 27.03
13:56 27.03
14:56 27.03
15:16 27.03
15:22 27.03
15:45 27.03
15:51 27.03
15:56 27.03
16:20 27.03
16:56 27.03
17:24 27.03
17:56 27.03
18:14 27.03
18:56 27.03
19:56 27.03
20:56 27.03
21:22 27.03
21:36 27.03
21:56 27.03
22:56 27.03
23:56 27.03
00:56 28.03
01:56 28.03
02:56 28.03
03:56 28.03
04:56 28.03
05:56 28.03
06:56 28.03
07:56 28.03
Ветер
(напр.,м/с)
Видим. Явления Облачность Т
(С)
Тd
(С)
f
(%)
Тe
(С)
Тes
(С)
Комфортность P
(гПа)
Po
(гПа)
Тmin
(С)
Tmax
(С)
R
(мм)
R24
(мм)
S
(см)
Ю 3 8 км слабый снег, дымка 10/10 690 m
[Ns]
-10.0 -11.7 87 -16 -16 1026.4 810.5 -11.1 -9.4 0.8 0.8
штиль 0 14 км слабый снег 10/10 480 m
[Ns]
-12.2 -13.3 91 -12 -12 1028.2 811.0
ЮВ 2 3 км слабый снег, дымка 10/10 540 m
[Ns]
-11.1 -12.8 87 -16 -16 1030.5 811.8
штиль 0 3 км слабый снег, дымка 10/10 540 m
[Ns]
-11.0 -12.0 92 -11 -11 811.8
штиль 0 4 км слабый снег, дымка 10/10 540 m
[Ns]
-11.0 -12.0 92 -11 -11 812.1
ЮВ 2 5 км слабый снег, дымка 10/10 540 m
[Ns]
-11.0 -12.0 92 -16 -16 812.1
штиль 0 3 км слабый снег, дымка 10/10 540 m
[Ns]
-11.0 -12.0 92 -11 -11 812.4
штиль 0 2 км слабый снег, дымка 10/10 480 m
[Ns]
-10.0 -11.7 87 -10 -10 1031.3 812.4
штиль 0 5 км слабый снег, дымка 10/10 540 m
[Ns]
-9.0 -10.0 92 -10 -10 812.4
штиль 0 3 км слабый снег, дымка 10/10 540 m
[Ns]
-6.0 -7.0 93 -7 -7 812.6
штиль 0 2 км слабый снег, дымка 10/10 540 m
[Ns]
-4.0 -6.0 86 -5 -5 812.6
штиль 0 3 км слабый снег 10/10 240 m
[Ns]
-2.0 -8.0 63 -3 -3 812.9
штиль 0 5 км слабый снег 10/10 240 m
[Ns]
-1.1 -7.8 60 -2 -2 1029.5 812.9
штиль 0 11 км слабый снег 10/10 180 m
[Ns]
0.0 -9.0 51 0 0 812.9
штиль 0 16 км неопределенные осадки 8/8 90 m
[Cb]
-12.0 -14.0 85 -12 -11 813.4
штиль 0 16 км 5/5 90 м -11.0 -13.0 85 -11 -8 813.4
штиль 0 16 км ясно -9.4 -11.7 83 -10 -3 1032.1 813.4
штиль 0 16 км ясно -6.1 -10.0 74 -7 +5 1031.4 813.7 -13.9 +1.7
штиль 0 16 км ясно -3.9 -10.0 63 -5 +11 1030.9 814.0
СЗ 3 16 км ясно -4.4 -9.4 68 -10 +1 1031.3 814.3
СЗ 4 16 км ясно -4.4 -9.4 68 -10 -2 1031.8 814.3
С 5 16 км 10/10 570 м -5.6 -8.9 78 -13 -13 1032.0 814.5
С 4 3 км слабый снег 10/10 450 m
[Ns]
-5.0 -8.0 79 -11 -11 814.5
С 4 1 км слабый снег 10/10 450 m
[Ns]
-5.0 -8.0 79 -11 -11 814.5
С 5 2 км слабый снег 10/10 510 m
[Ns]
-6.0 -8.0 86 -13 -13 814.5
С 5 5 км слабый снег 10/10 510 m
[Ns]
-6.0 -8.0 86 -13 -13 814.3
С 5 10 км слабый снег 10/10 270 m
[Ns]
-5.6 -8.3 81 -13 -13 1032.0 814.3
С 4 14 км слабый снег 2/2 270 m
[Ns]
-6.0 -9.0 79 -12 -10 814.3
С 4 16 км ясно -5.6 -8.9 78 -12 -9 1031.9 814.3 -6.1 -3.9
С 3 16 км 8/8 810 м -7.0 -9.0 86 -13 -12 814.5
С 3 16 км слабый снег 10/10 360 m
[Ns]
-7.2 -9.4 84 -13 -13 1033.3 814.5
С 3 14 км слабый снег 5/5 360 m
[Ns]
-8.0 -10.0 85 -14 -14 814.8
СВ 3 16 км ясно -12.2 -13.9 87 -18 -18 1034.7 814.8
СВ 2 16 км ясно -13.3 -13.9 95 -18 -18 1034.8 814.8
Ю 2 16 км ясно -15.0 -16.7 87 -20 -20 1032.9 815.1
ЮВ 2 16 км 5/5 60 м -14.0 -16.0 85 -19 -19 815.1
В 3 16 км 8/8 60 м -15.0 -17.0 85 -22 -22 814.8
В 3 14 км 2/2 60 м -16.7 -18.3 87 -24 -24 1035.5 814.8
штиль 0 16 км ясно -14.4 -15.6 91 -14 -14 1033.2 814.3 -17.2 -5.6
штиль 0 16 км ясно -18.9 -21.1 83 -19 -19 1033.5 814.0
СВ 2 16 км ясно -19.4 -21.7 82 -25 -25 1033.4 813.7
ЮВ 3 16 км ясно -18.9 -21.1 83 -26 -26 1033.0 813.4
СВ 2 16 км 8/0 3000 m
[Ac]
-19.4 -21.7 82 -25 -25 1032.3 812.6
В 2 16 км 10/0 3300 m
[Ac]
-15.6 -16.7 91 -21 -21 1030.2 811.8
Ю 4 16 км 10/0 2550 m
[Ac]
-12.8 -14.4 88 -20 -20 1029.0 811.6 -20.6 -12.8
СВ 2 16 км 10/0 2250 m
[Ac]
-11.7 -13.3 88 -16 -16 1028.5 811.0
ЮВ 2 16 км 10/0 2100 m
[Ac]
-10.6 -11.7 92 -15 -15 1029.4 811.0
штиль 0 16 км 10/0 2100 m
[Ac]
-8.3 -9.4 92 -9 -9 1029.2 811.0
Местоположение метеостанции Driggs-Reed Memorial Airport: широта 43.7417 долгота -111.0978 высота над уровнем моря 1898 м.
В архиве по умолчанию представлена погода в Дригсе за последние 1-2 суток. Обновление информации о фактической погоде в базе происходит ежечасно! Архивные данные за месяц целиком и за предыдущие месяцы Вы можете получить, выбрав интересующий диапазон дат из раскрывающегося списка и нажав кнопку "Ввод!".
Внимание! Архив погоды МЕТАР в базе сайта по станциям, не включенным в климатический монитор, хранится не более 60 дней. Нет смысла пытаться выбрать более раннюю дату.
*Определитесь, кто Вы:
Внимание! Время в таблицах - местное (без учета летнего времени). Для получения всемирного времени необходимо вычесть поправку, которая равна -7 ч.
Смотрите также архив погоды в соседних городах и на ближайших метеорологических станциях:
Партнеры нашего сайта:      
Пояснения к столбцам:
  • Ветер - указаны скорость ветра в м/с - средняя за 10 мин, порывы в срок и между сроками (в фигурных скобках) и направление, откуда дует ветер: С - северный,
  • СВ - северо-восточный, В - восточный, ЮВ - юго-восточный, Ю - южный, ЮЗ - юго-западный, З - западный, СЗ - северо-западный.
  • Видимость - горизонтальная дальность видимости в метрах или километрах. При видимости от 1 до 10 км при отсутствии осадков обычно наблюдается дымка, при ухудшении видимости до 1 км и менее - туман. В сухую погоду видимость может ухудшаться дымом, пылью или мглою.
  • Явления - указаны атмосферные явления, наблюдавшиеся в срок или в последний час перед сроком; фигурными скобками обозначены явления, наблюдавшиеся между сроками (за 1-3 часа до срока); квадратными скобками обозначены град или гололедные отложения с указанием их диаметра в мм.
  • Облачность - указаны через наклонную черту общая и нижняя облачность в баллах и высота нижней границы облаков в метрах; квадратными скобками обозначены формы облаков: Ci - перистые, Cs - перисто-слоистые, Cc - перисто-кучевые, Ac - высококучевые, As - высокослоистые, Sc - слоисто-кучевые, Ns - слоисто-дождевые, Cu - кучевые, Cb - кучево-дождевые. Подробнее классификацию облаков см. в Атласе облаков (PDF).
  • T - Температура воздуха - температура, измеренная на высоте 2 м над землей.
  • Td - Температура точки росы - температура, при понижении до которой содержащийся в воздухе водяной пар достигнет насыщения.
  • f - Относительная влажность воздуха - влажноcть воздуха, измеренная на высоте 2 м над землей.
  • Te - Эффективная температура - температура, которую ощущает одетый по сезону человек в тени. Характеристика душности погоды. При расчете учитывается влияние влажности воздуха и скорости ветра на теплоощущения человека.
  • Tes - Эффективная температура на солнце - температура, которую ощущает человек, с поправкой на солнечный нагрев. Характеристика знойности погоды. Зависит от высоты солнца над горизонтом, облачности и скорости ветра. Ночью, в пасмурную погоду, а также при ветре 12 м/с и более поправка равна нулю.
  • P - Атмосферное давление - приведенное к уровню моря атмосферное давление.
  • Po - Атмосферное давление - измеренное на уровне метеостанции атмосферное давление.
  • Tmin - Минимальная температура - минимум температуры воздуха на высоте 2 м над землей.
  • Tmax - Максимальная температура - максимум температуры воздуха на высоте 2 м над землей.
  • R - Количество осадков - Количество выпавших осадков за период времени, мм. При наведении курсора мыши на число - период времени, за который выпало указанное количество осадков.
  • R24 - Количество осадков - Количество выпавших осадков за 24 часа, мм.
  • S - Снежный покров - Высота снежного покрова, см. При наведении курсора мыши на число - состояние снежного покрова и степень покрытия местности в баллах.